This demonstration page uses our WeatherBlox Daily Observations layout. Learn more.

Left ArrowRight Arrow

Hourly Observations for March 19, 2023

Temp ( °F °C ) Dew Point ( °F °C ) Humidity (%) Winds ( mph kmh ) Pressure ( in mb ) Visibility ( mi km ) Precip ( " mm )
12:10 am 00:10 Cloudy 27 -3 12 -11 54 54 NNW 6 9 30.32 1027 10 16 0.00 0.00
12:30 am 00:30 Cloudy 27 -3 14 -10 58 58 NNW 7 11 30.33 1027 10 16 0.00 0.00
12:50 am 00:50 Cloudy 27 -3 14 -10 58 58 NW 9 15 30.33 1027 10 16 0.00 0.00
1:10 am 01:10 Cloudy 25 -4 12 -11 58 58 NW 10 17 30.34 1027 10 16 0.00 0.00
1:30 am 01:30 Cloudy 25 -4 12 -11 58 58 NW 8 13 30.34 1027 10 16 0.00 0.00
1:50 am 01:50 Cloudy 25 -4 12 -11 58 58 NNW 7 11 30.34 1027 10 16 0.00 0.00
2:10 am 02:10 Cloudy 23 -5 10 -12 58 58 NNW 10 17 30.36 1028 10 16 0.00 0.00
2:30 am 02:30 Cloudy 23 -5 10 -12 58 58 NNW 10 17 30.36 1028 10 16 0.00 0.00
2:50 am 02:50 Cloudy 23 -5 12 -11 63 63 NNW 8 13 30.36 1028 10 16 0.00 0.00
3:10 am 03:10 Cloudy 23 -5 10 -12 58 58 NNW 8 13 30.38 1029 10 16 0.00 0.00
3:30 am 03:30 Cloudy 23 -5 10 -12 58 58 NNW 9 15 30.38 1029 10 16 0.00 0.00
3:50 am 03:50 Cloudy 23 -5 9 -13 53 53 NW 7 11 30.38 1029 10 16 0.00 0.00
4:10 am 04:10 Cloudy 23 -5 10 -12 58 58 Calm 30.38 1029 10 16 0.00 0.00
4:30 am 04:30 Cloudy 23 -5 10 -12 58 58 NNW 8 13 30.38 1029 10 16 0.00 0.00
4:50 am 04:50 Cloudy with Light Snow 21 -6 14 -10 73 73 NNW 9 15 30.38 1029 5 8 0.00 0.00
5:10 am 05:10 Cloudy 21 -6 14 -10 73 73 NNW 6 9 30.38 1029 10 16 0.00 0.00
5:30 am 05:30 Cloudy 21 -6 10 -12 62 62 NNW 5 7 30.37 1028 10 16 0.00 0.00
5:50 am 05:50 Cloudy 21 -6 10 -12 62 62 Calm 30.38 1029 10 16 0.00 0.00
6:10 am 06:10 Cloudy with Light Snow 21 -6 14 -10 73 73 N 7 11 30.39 1029 10 16 0.00 0.00
6:30 am 06:30 Cloudy 21 -6 12 -11 68 68 Calm 30.39 1029 10 16 0.00 0.00
6:50 am 06:50 Cloudy 21 -6 10 -12 62 62 Calm 30.39 1029 10 16 0.00 0.00
7:10 am 07:10 Cloudy 21 -6 12 -11 68 68 NNW 6 9 30.40 1029 10 16 0.00 0.00
7:30 am 07:30 Cloudy 21 -6 12 -11 68 68 Calm 30.40 1029 10 16 0.00 0.00
7:50 am 07:50 Cloudy 21 -6 12 -11 68 68 Calm 30.40 1029 10 16 0.00 0.00
8:10 am 08:10 Cloudy 23 -5 9 -13 53 53 NNW 5 7 30.41 1030 10 16 0.00 0.00
8:30 am 08:30 Cloudy 23 -5 9 -13 53 53 NW 7 11 30.41 1030 10 16 0.00 0.00
8:50 am 08:50 Cloudy 23 -5 9 -13 53 53 Calm 30.41 1030 10 16 0.00 0.00
9:10 am 09:10 Cloudy 23 -5 9 -13 53 53 Calm 30.43 1030 10 16 0.00 0.00
9:30 am 09:30 Cloudy 23 -5 9 -13 53 53 Calm 30.43 1030 10 16 0.00 0.00
9:50 am 09:50 Cloudy 23 -5 9 -13 53 53 NW 7 11 30.44 1031 10 16 0.00 0.00
10:15 am 10:15 Cloudy 23 -5 9 -13 53 53 NNW 7 11 30.44 1031 10 16 0.00 0.00
10:30 am 10:30 Cloudy 25 -4 9 -13 49 49 Calm 30.44 1031 10 16 0.00 0.00
10:50 am 10:50 Cloudy 25 -4 7 -14 46 46 NNW 7 11 30.44 1031 10 16 0.00 0.00
11:10 am 11:10 Cloudy 25 -4 9 -13 49 49 N 6 9 30.45 1031 10 16 0.00 0.00
11:30 am 11:30 Cloudy 25 -4 9 -13 49 49 Calm 30.45 1031 10 16 0.00 0.00
11:50 am 11:50 Cloudy 25 -4 10 -12 54 54 NNW 7 11 30.46 1032 10 16 0.00 0.00
12:10 pm 12:10 Cloudy 27 -3 10 -12 50 50 WNW 6 9 30.46 1031 10 16 0.00 0.00
12:30 pm 12:30 Cloudy 27 -3 9 -13 46 46 Calm 30.46 1031 10 16 0.00 0.00
12:50 pm 12:50 Cloudy 27 -3 10 -12 50 50 NW 5 7 30.46 1032 10 16 0.00 0.00
1:10 pm 13:10 Cloudy 27 -3 12 -11 54 54 Calm 30.46 1032 10 16 0.00 0.00
1:30 pm 13:30 Cloudy 28 -2 10 -12 46 46 WNW 6 9 30.45 1031 10 16 0.00 0.00
1:50 pm 13:50 Cloudy 28 -2 9 -13 43 43 Calm 30.45 1031 10 16 0.00 0.00
2:10 pm 14:10 Cloudy 30 -1 12 -11 46 46 NNW 3 6 30.45 1031 10 16 0.00 0.00
2:30 pm 14:30 Mostly Cloudy 30 -1 10 -12 43 43 WNW 8 13 30.44 1031 10 16 0.00 0.00
2:50 pm 14:50 Partly Cloudy 30 -1 10 -12 43 43 Calm 30.43 1030 10 16 0.00 0.00
3:10 pm 15:10 Mostly Cloudy 32 0 10 -12 40 40 Calm 30.41 1030 10 16 0.00 0.00
3:30 pm 15:30 Mostly Cloudy 30 -1 10 -12 43 43 Calm 30.42 1030 10 16 0.00 0.00
3:50 pm 15:50 Partly Cloudy 32 0 10 -12 40 40 Calm 30.41 1030 10 16 0.00 0.00
4:10 pm 16:10 Mostly Cloudy 32 0 14 -10 47 47 NW 7 11 30.40 1030 10 16 0.00 0.00
4:30 pm 16:30 Partly Cloudy 32 0 10 -12 40 40 Calm 30.40 1030 10 16 0.00 0.00
4:50 pm 16:50 Partly Cloudy 34 1 12 -11 40 40 Calm 30.40 1029 10 16 0.00 0.00
5:10 pm 17:10 Partly Cloudy 34 1 12 -11 40 40 NW 9 15 30.40 1029 10 16 0.00 0.00
5:30 pm 17:30 Partly Cloudy 34 1 12 -11 40 40 Calm 30.39 1029 10 16 0.00 0.00
5:50 pm 17:50 Sunny 34 1 12 -11 40 40 Calm 30.39 1029 10 16 0.00 0.00
6:10 pm 18:10 Sunny 34 1 10 -12 37 37 Calm 30.39 1029 10 16 0.00 0.00
6:30 pm 18:30 Partly Cloudy 32 0 12 -11 43 43 Calm 30.38 1029 10 16 0.00 0.00
6:50 pm 18:50 Partly Cloudy 34 1 12 -11 40 40 Calm 30.39 1029 10 16 0.00 0.00
7:10 pm 19:10 Sunny 32 0 12 -11 43 43 WNW 6 9 30.39 1029 10 16 0.00 0.00
7:30 pm 19:30 Sunny 32 0 10 -12 40 40 Calm 30.38 1029 10 16 0.00 0.00
7:50 pm 19:50 Clear 32 0 12 -11 43 43 Calm 30.39 1029 10 16 0.00 0.00
8:10 pm 20:10 Clear 30 -1 12 -11 46 46 Calm 30.41 1030 10 16 0.00 0.00
8:30 pm 20:30 Clear 28 -2 12 -11 50 50 Calm 30.41 1030 10 16 0.00 0.00
8:50 pm 20:50 Clear 28 -2 12 -11 50 50 Calm 30.41 1030 10 16 0.00 0.00
9:10 pm 21:10 Clear 28 -2 12 -11 50 50 Calm 30.42 1030 10 16 0.00 0.00
9:30 pm 21:30 Clear 27 -3 14 -10 58 58 Calm 30.43 1030 10 16 0.00 0.00
9:50 pm 21:50 Clear 25 -4 14 -10 63 63 Calm 30.44 1031 10 16 0.00 0.00
10:10 pm 22:10 Clear 27 -3 14 -10 58 58 Calm 30.44 1031 10 16 0.00 0.00
10:30 pm 22:30 Clear 23 -5 14 -10 68 68 Calm 30.44 1031 10 16 0.00 0.00
10:50 pm 22:50 Clear 23 -5 16 -9 73 73 Calm 30.44 1031 10 16 0.00 0.00
11:10 pm 23:10 Clear 23 -5 16 -9 73 73 Calm 30.44 1031 10 16 0.00 0.00
11:30 pm 23:30 Clear 23 -5 16 -9 73 73 Calm 30.44 1031 10 16 0.00 0.00
11:50 pm 23:50 Clear 21 -6 16 -9 79 79 Calm 30.45 1031 10 16 0.00 0.00

Powered by Vaisala Xweather